Vorticity
12 20 15 7 5 2 5 6 8 7 2 11 5 12 14 22 26 10 12 18 11 7 2 2 3 5 4 5 14 11 19 17 18 12 8 9 16 18 21 5 -7 43 -15 -14
4 4 6 7 8 7 8 6 6 29 -16 5 23 6 29 5 1 22 9 4 1 -3 16 22 21 23 20 15 7 6 12 22 12 12 10 9 6 13 17 23 5 13 -2 16
8 9 6 6 11 11 9 10 6 -1 7 58 5 40 -5 6 10 8 7 8 4 22 21 20 15 16 21 18 7 5 8 12 11 7 6 6 9 14 17 17 7 3 -4 3
0 9 5 5 5 6 21 1 4 13 19 13 12 -3 18 3 4 5 9 32 32 17 17 19 16 16 17 24 33 37 46 11 13 10 13 15 15 16 17 22 12 18 10 -14
7 8 7 2 3 9 3 7 9 17 11 18 3 20 -4 1 9 13 -7 1 -4 2 -1 5 14 20 24 21 20 26 39 41 7 15 17 14 17 18 22 18 8 7 14 4
5 3 5 8 3 9 12 4 31 12 14 19 13 2 5 -6 4 11 5 3 15 10 11 21 6 21 11 29 28 29 31 22 9 33 14 15 20 21 21 20 9 4 4 15
11 12 7 7 2 12 8 25 9 14 15 -4 7 23 -17 -13 2 9 8 10 10 5 12 -1 2 10 12 14 34 18 16 15 20 25 13 18 18 17 13 19 10 9 13 18
6 13 5 0 3 2 6 8 21 8 5 -9 17 14 -14 20 -1 11 8 10 8 8 6 -1 6 18 6 15 16 16 9 13 20 18 13 44 13 19 13 17 4 12 -4 1
9 10 6 12 8 8 3 1 16 11 13 17 6 8 27 -8 -1 12 9 8 9 9 6 7 8 2 7 18 14 16 15 13 7 12 11 9 11 13 23 14 8 2 2 8
-2 18 12 6 7 23 11 -0 5 7 10 16 11 17 6 -5 -1 11 10 9 8 9 7 8 9 8 13 5 40 11 21 13 7 10 17 14 16 20 18 8 9 9 1 -5
13 11 4 5 11 7 10 6 8 9 5 4 5 15 -1 3 -9 8 11 8 8 9 9 8 8 9 10 8 5 30 7 10 11 7 11 19 15 14 12 9 7 4 6 7
12 9 6 6 12 3 3 0 -0 4 16 -0 -3 15 5 0 -16 10 3 8 9 8 9 8 9 8 9 9 9 7 13 26 21 22 20 20 16 10 9 6 4 6 3 6
3 2 14 14 16 18 17 17 24 12 3 18 -12 -3 -3 -17 4 5 2 1 7 7 8 8 8 10 9 7 8 8 7 7 7 6 38 2 17 6 15 23 24 20 12 23
17 12 -5 -28 -27 -22 -25 -21 -5 -2 7 -14 -39 -29 40 16 1 2 -5 18 16 11 8 7 7 6 8 9 8 8 8 8 8 7 7 13 15 12 13 10 10 9 8 7
17 6 7 10 10 7 10 18 19 13 4 -15 -16 -38 11 13 28 31 11 8 8 9 10 9 8 7 6 7 8 9 8 8 8 9 9 9 8 8 8 9 10 11 12 13
3 14 -15 9 72 24 3 -2 -2 8 13 12 25 5 19 18 -1 13 9 8 10 8 10 11 9 8 7 6 7 7 8 8 8 7 7 7 8 9 9 9 9 8 9 9
11 13 -7 34 2 -14 71 49 26 17 8 21 18 10 18 21 18 14 2 6 12 14 9 10 10 8 8 6 7 7 7 6 7 8 8 7 7 7 8 8 8 8 8 8
1 -4 12 -3 48 25 7 -13 -15 26 22 10 6 10 11 16 6 -15 15 26 14 16 12 11 9 7 7 6 7 8 7 7 7 7 8 8 8 8 8 9 9 9 8 8
23 18 -19 -4 -0 -21 70 52 6 4 -4 11 23 33 24 2 -8 3 6 -4 -5 10 11 10 11 7 6 6 6 6 7 8 8 7 7 8 8 8 8 9 9 8 8 8
28 23 -20 19 5 -2 -8 -10 -6 10 45 -32 -7 18 12 -3 1 5 6 21 18 14 8 9 8 8 8 6 7 6 7 7 7 6 7 6 6 7 7 8 8 8 8 8
16 21 8 4 -9 13 10 22 26 21 -11 -25 9 1 5 8 10 8 23 11 20 16 17 11 9 7 7 8 7 6 6 6 6 6 6 6 6 6 6 6 7 8 6 6
7 16 12 32 3 19 13 0 2 -11 -31 -2 6 -1 6 5 7 11 15 12 10 2 5 12 15 15 9 8 8 7 7 7 6 6 7 6 6 6 6 7 8 9 8 8
5 -12 -11 -20 -51 -38 -26 1 14 15 7 11 6 11 9 9 15 11 8 10 15 17 14 10 12 12 13 10 8 7 6 8 7 7 7 7 7 7 8 8 9 9 9 10
23 20 -4 -4 20 -3 -4 4 26 27 29 28 22 16 25 14 4 9 6 9 3 2 12 12 7 8 13 12 9 7 6 8 7 6 7 8 8 8 9 9 10 10 11 11
1 -3 -11 -22 19 15 26 25 -1 6 8 13 17 2 4 7 8 8 9 13 14 7 5 3 9 17 15 13 14 10 8 9 8 7 8 9 10 9 10 10 10 11 8 5
20 19 26 6 14 22 25 3 5 1 6 8 10 12 9 9 8 2 9 13 6 12 14 12 18 5 13 10 16 12 11 11 9 8 8 10 10 10 10 10 12 7 4 7
Height
3127 3128 3127 3128 3127 3127 3127 3126 3123 3122 3118 3112 3111 3106 3105 3102 3099 3097 3094 3093 3090 3088 3085 3083 3079 3073 3070 3067 3064 3062 3061 3061 3062 3061 3063 3064 3067 3069 3074 3081 3087 3089 3095 3101
3128 3127 3127 3127 3127 3126 3125 3123 3121 3119 3116 3112 3106 3101 3098 3096 3095 3094 3092 3089 3085 3081 3076 3070 3066 3062 3057 3055 3053 3051 3050 3049 3049 3050 3051 3054 3057 3059 3063 3070 3077 3083 3085 3091
3127 3128 3127 3127 3126 3124 3122 3121 3120 3117 3110 3107 3103 3097 3095 3094 3093 3091 3087 3084 3079 3073 3068 3064 3059 3055 3050 3046 3044 3040 3037 3038 3039 3039 3042 3043 3046 3050 3054 3060 3065 3073 3078 3082
3128 3128 3128 3126 3125 3123 3122 3120 3117 3114 3111 3108 3105 3101 3095 3094 3091 3088 3085 3080 3074 3071 3065 3060 3055 3049 3043 3038 3032 3027 3024 3024 3026 3029 3031 3033 3036 3040 3046 3052 3059 3065 3069 3070
3129 3127 3127 3125 3124 3124 3123 3118 3115 3113 3110 3108 3105 3104 3093 3091 3089 3087 3084 3079 3074 3068 3062 3056 3048 3040 3033 3026 3019 3014 3011 3011 3016 3019 3021 3024 3026 3032 3037 3043 3050 3057 3062 3064
3127 3126 3126 3125 3125 3122 3120 3116 3113 3111 3110 3110 3104 3105 3091 3090 3088 3086 3081 3076 3071 3065 3059 3052 3042 3035 3027 3019 3012 3006 3005 3007 3009 3010 3013 3017 3019 3025 3030 3038 3042 3050 3055 3058
3126 3125 3124 3124 3123 3121 3120 3115 3113 3116 3113 3108 3102 3102 3090 3089 3086 3083 3079 3074 3069 3064 3058 3050 3043 3035 3026 3018 3012 3008 3005 3005 3005 3006 3009 3011 3014 3019 3024 3032 3039 3044 3046 3053
3125 3124 3124 3123 3123 3122 3120 3119 3118 3124 3117 3107 3101 3095 3088 3087 3085 3081 3078 3074 3069 3064 3057 3051 3044 3037 3029 3021 3015 3011 3008 3006 3006 3006 3008 3009 3013 3018 3022 3026 3035 3040 3033 3045
3126 3123 3122 3122 3121 3122 3120 3120 3118 3116 3114 3111 3098 3090 3086 3085 3084 3080 3076 3072 3068 3063 3057 3051 3046 3039 3032 3025 3019 3014 3011 3008 3007 3007 3008 3010 3014 3018 3022 3026 3032 3037 3039 3042
3126 3123 3121 3121 3120 3119 3119 3120 3118 3116 3118 3114 3096 3090 3084 3083 3082 3078 3074 3070 3066 3062 3057 3052 3047 3041 3035 3029 3022 3018 3014 3010 3008 3008 3008 3010 3013 3017 3022 3026 3029 3033 3036 3038
3124 3124 3122 3119 3117 3117 3118 3117 3117 3117 3116 3115 3110 3086 3082 3081 3079 3076 3072 3068 3065 3061 3056 3053 3048 3043 3038 3032 3027 3020 3016 3014 3012 3011 3010 3011 3013 3017 3021 3025 3029 3031 3033 3034
3123 3120 3116 3115 3114 3114 3114 3115 3116 3116 3115 3113 3111 3086 3080 3079 3077 3073 3070 3066 3063 3059 3056 3052 3048 3044 3040 3036 3031 3026 3021 3017 3014 3013 3013 3013 3014 3017 3019 3022 3024 3027 3028 3029
3122 3119 3115 3112 3114 3112 3111 3111 3111 3112 3111 3106 3109 3082 3076 3075 3073 3070 3066 3064 3061 3058 3055 3052 3049 3045 3041 3036 3033 3029 3025 3022 3020 3018 3016 3016 3017 3018 3019 3020 3021 3022 3022 3022
3119 3115 3114 3111 3109 3108 3106 3106 3106 3107 3103 3098 3084 3075 3074 3074 3070 3067 3065 3061 3059 3057 3054 3051 3047 3045 3041 3037 3034 3031 3029 3026 3023 3021 3020 3019 3019 3019 3020 3020 3020 3019 3019 3018
3116 3110 3108 3104 3101 3100 3095 3093 3094 3093 3092 3091 3072 3071 3066 3069 3066 3063 3062 3060 3057 3055 3053 3050 3047 3044 3041 3038 3034 3031 3029 3027 3025 3022 3021 3020 3019 3018 3018 3018 3017 3016 3016 3015
3113 3108 3103 3094 3094 3090 3083 3082 3082 3080 3078 3073 3070 3064 3067 3064 3062 3060 3057 3054 3052 3051 3050 3048 3045 3042 3040 3037 3034 3031 3028 3026 3024 3022 3021 3020 3019 3018 3017 3016 3015 3014 3013 3011
3107 3104 3103 3089 3089 3085 3074 3069 3070 3070 3068 3067 3063 3061 3061 3059 3058 3056 3054 3052 3048 3046 3045 3043 3041 3039 3037 3034 3031 3029 3027 3025 3023 3021 3019 3018 3016 3015 3013 3012 3011 3010 3008 3006
3101 3102 3103 3091 3088 3083 3069 3067 3066 3062 3061 3060 3058 3058 3056 3055 3054 3053 3050 3046 3044 3042 3041 3039 3037 3035 3033 3031 3029 3027 3025 3023 3022 3020 3018 3016 3014 3012 3010 3009 3007 3005 3003 3000
3097 3099 3099 3094 3087 3072 3061 3061 3063 3060 3056 3055 3053 3052 3051 3050 3049 3049 3045 3042 3039 3037 3036 3035 3033 3031 3029 3027 3026 3024 3023 3021 3019 3017 3015 3013 3011 3009 3007 3004 3002 3000 2998 2996
3091 3094 3097 3092 3089 3076 3061 3060 3059 3057 3052 3050 3051 3048 3047 3045 3042 3042 3038 3034 3030 3029 3028 3027 3026 3025 3024 3023 3021 3020 3019 3017 3015 3013 3011 3009 3006 3004 3003 3000 2998 2996 2993 2991
3087 3087 3086 3089 3086 3065 3059 3058 3057 3058 3055 3048 3046 3044 3042 3038 3037 3034 3030 3027 3023 3021 3020 3020 3018 3017 3017 3017 3015 3014 3013 3012 3010 3008 3006 3004 3002 3000 2997 2995 2993 2990 2987 2984
3082 3081 3078 3080 3078 3062 3054 3054 3055 3051 3046 3043 3041 3038 3035 3032 3029 3027 3025 3021 3018 3015 3013 3012 3011 3010 3010 3009 3009 3007 3007 3006 3004 3002 3000 2998 2996 2994 2992 2990 2987 2985 2982 2979
3071 3069 3070 3067 3054 3053 3049 3048 3047 3042 3038 3036 3033 3031 3026 3023 3023 3020 3019 3016 3014 3011 3008 3005 3004 3002 3002 3002 3001 3001 2999 2999 2997 2995 2993 2992 2990 2988 2986 2984 2981 2978 2975 2972
3061 3062 3056 3053 3040 3044 3043 3039 3035 3032 3027 3025 3023 3021 3019 3015 3014 3013 3011 3009 3007 3005 3003 3000 2999 2997 2995 2994 2993 2993 2991 2990 2989 2987 2986 2985 2983 2982 2979 2977 2974 2970 2967 2964
3058 3055 3048 3039 3030 3032 3032 3030 3028 3025 3022 3018 3016 3013 3011 3008 3006 3003 3001 3000 2998 2996 2995 2993 2991 2990 2988 2986 2986 2984 2984 2983 2982 2981 2980 2978 2976 2974 2972 2969 2966 2963 2959 2956
3044 3042 3033 3017 3026 3021 3019 3019 3017 3014 3011 3009 3006 3004 3001 2998 2995 2993 2992 2991 2989 2986 2985 2984 2983 2981 2979 2978 2977 2977 2976 2976 2975 2974 2973 2971 2969 2967 2964 2962 2959 2955 2952 2948